Weather History for Meadville, PA

Change the Weather History Date:

Thursday, February 27, 2014

  Actual Average Record
Temperature  
Mean Temperature 8 °F -  
Max Temperature 15 °F 36 °F 64 °F (1951)
Min Temperature 0 °F 16 °F -22 °F (1963)
Degree Days  
Heating Degree Days 57    
Moisture  
Dew Point 0 °F    
Average Humidity 66    
Maximum Humidity 85    
Minimum Humidity 42    
Precipitation  
Precipitation 0.01 in - - ()
Sea Level Pressure  
Sea Level Pressure 29.73 in    
Wind  
Wind Speed 11 mph (West)    
Max Wind Speed 22 mph    
Max Gust Speed 41 mph    
Visibility 4 miles    
Events Snow    
Averages and records for this station are not official NWS values.
T = Trace of Precipitation, MM = Missing Value Source: NWS Daily Summary

Daily Weather History Graph

Daily Weather History Graph

Search for Another Location

Airport:

Trip Planner

Search our weather history database for the weather conditions in past years. The results will help you decide how hot, cold, wet, or windy it might be!

Date:

Astronomy

Feb. 27, 2014 Rise Set
Actual Time 6:58 AM EST 6:09 PM EST
Civil Twilight 6:30 AM EST 6:36 PM EST
Nautical Twilight 5:58 AM EST 7:09 PM EST
Astronomical Twilight 5:26 AM EST 7:41 PM EST
Moon 5:31 AM EST (2/27) 4:32 PM EST (2/27)
Length of Visible Light 12h 06m
Length of Day
11h 10m
Waning Crescent, 4% of the Moon is Illuminated
Feb 27
Waning Crescent
Mar 1
New
Mar 8
First Quarter
Mar 16
Full
Mar 23
Last Quarter

Hourly Weather History & Observations

Time (EST) Temp. Windchill Dew Point Humidity Pressure Visibility Wind Dir Wind Speed Gust Speed Precip Events Conditions
12:53 AM 10.9 °F -0.8 °F 1.0 °F 64% 29.70 in 10.0 mi SSW 8.1 mph - N/A   Partly Cloudy
1:53 AM 10.9 °F -2.6 °F 1.0 °F 64% 29.67 in 10.0 mi SSW 10.4 mph - N/A   Mostly Cloudy
2:53 AM 12.0 °F -0.4 °F -0.0 °F 59% 29.64 in 10.0 mi SW 9.2 mph 18.4 mph N/A   Overcast
3:53 AM 12.9 °F -0.2 °F -0.9 °F 54% 29.61 in 10.0 mi WSW 10.4 mph 20.7 mph N/A   Overcast
4:53 AM 12.0 °F -1.3 °F -0.9 °F 56% 29.59 in 10.0 mi SW 10.4 mph - N/A   Mostly Cloudy
5:53 AM 12.0 °F 0.5 °F 1.9 °F 64% 29.58 in 9.0 mi SW 8.1 mph 20.7 mph N/A   Overcast
6:15 AM 12.2 °F -0.2 °F 3.2 °F 67% 29.50 in 2.5 mi SW 9.2 mph - 0.00 in Snow Light Snow
6:45 AM 12.2 °F 0.7 °F 5.0 °F 73% 29.50 in 1.5 mi SSW 8.1 mph 16.1 mph 0.00 in Snow Light Snow
6:53 AM 12.0 °F 0.5 °F 5.0 °F 73% 29.57 in 1.5 mi SSW 8.1 mph 16.1 mph 0.00 in Snow Light Snow
7:16 AM 12.2 °F -0.2 °F 6.8 °F 79% 29.50 in 0.5 mi SW 9.2 mph 16.1 mph 0.00 in Snow Snow
7:28 AM 12.2 °F 0.7 °F 6.8 °F 79% 29.50 in 1.0 mi SW 8.1 mph - 0.00 in Snow Light Snow
7:35 AM 12.2 °F -1.0 °F 6.8 °F 79% 29.50 in 0.8 mi SSW 10.4 mph 18.4 mph 0.00 in Snow Light Snow
7:49 AM 12.2 °F -1.8 °F 6.8 °F 79% 29.50 in 1.2 mi SSW 11.5 mph 21.9 mph 0.00 in Snow Light Snow
7:53 AM 12.9 °F -0.2 °F 7.0 °F 77% 29.57 in 2.0 mi SSW 10.4 mph 21.9 mph 0.00 in Snow Light Snow
8:12 AM 12.2 °F -3.1 °F 6.8 °F 79% 29.49 in 0.8 mi SW 13.8 mph 23.0 mph 0.00 in Snow Light Snow
8:42 AM 14.0 °F 0.5 °F 8.6 °F 79% 29.50 in 0.2 mi SW 11.5 mph 25.3 mph 0.00 in Snow Heavy Snow
8:53 AM 14.0 °F -0.8 °F 8.1 °F 77% 29.58 in 0.5 mi SW 13.8 mph 24.2 mph 0.00 in Snow Snow
9:08 AM 15.8 °F 1.4 °F 8.6 °F 73% 29.51 in 0.2 mi SW 13.8 mph 23.0 mph 0.00 in Snow Heavy Snow
9:28 AM 15.8 °F 1.4 °F 10.4 °F 79% 29.53 in 0.2 mi West 13.8 mph 26.5 mph 0.00 in Snow Heavy Snow
9:43 AM 12.2 °F -2.5 °F 8.6 °F 85% 29.54 in 0.2 mi West 12.7 mph 25.3 mph 0.00 in Snow Heavy Snow
9:51 AM 14.0 °F -0.8 °F 6.8 °F 73% 29.55 in 0.2 mi West 13.8 mph 27.6 mph 0.00 in Snow Heavy Snow
9:53 AM 14.0 °F 0.5 °F 7.0 °F 74% 29.62 in 0.5 mi West 11.5 mph 27.6 mph 0.00 in Snow Snow
10:16 AM 14.0 °F -2.5 °F 6.8 °F 73% 29.56 in 0.5 mi West 17.3 mph 24.2 mph 0.00 in Snow Snow
10:31 AM 14.0 °F -2.0 °F 6.8 °F 73% 29.58 in 0.2 mi West 16.1 mph 28.8 mph 0.00 in Snow Heavy Snow
10:49 AM 14.0 °F -0.8 °F 6.8 °F 73% 29.60 in 0.5 mi WNW 13.8 mph 27.6 mph 0.00 in Snow Snow
10:53 AM 12.9 °F -3.4 °F 6.1 °F 74% 29.68 in 0.2 mi WNW 16.1 mph 26.5 mph 0.00 in Snow Heavy Snow
11:06 AM 12.2 °F -4.3 °F 6.8 °F 79% 29.62 in 0.2 mi WNW 16.1 mph 24.2 mph 0.00 in Snow Heavy Snow
11:32 AM 10.4 °F -7.7 °F 5.0 °F 79% 29.65 in 0.2 mi WNW 18.4 mph 41.4 mph 0.01 in Snow Heavy Snow
11:47 AM 8.6 °F -10.5 °F 1.4 °F 73% 29.68 in 0.8 mi NW 19.6 mph 32.2 mph 0.01 in Snow Light Snow
11:53 AM 10.0 °F -7.6 °F 1.0 °F 67% 29.77 in 1.2 mi NW 17.3 mph 29.9 mph 0.01 in Snow Light Snow
12:08 PM 8.6 °F -11.4 °F -0.4 °F 67% 29.70 in 1.0 mi NW 21.9 mph 32.2 mph 0.00 in Snow Light Snow
12:24 PM 8.6 °F -8.3 °F -0.4 °F 67% 29.72 in 3.0 mi NW 15.0 mph 25.3 mph 0.00 in Snow Light Snow
12:43 PM 8.6 °F -8.9 °F -2.2 °F 62% 29.74 in 1.8 mi NW 16.1 mph 24.2 mph 0.00 in Snow Light Snow
12:53 PM 7.0 °F -9.8 °F -0.0 °F 73% 29.83 in 0.5 mi North 13.8 mph 23.0 mph 0.00 in Snow Snow
1:00 PM 6.8 °F -10.7 °F -0.4 °F 72% 29.75 in 0.5 mi NNW 15.0 mph 20.7 mph 0.00 in Snow Snow
1:30 PM 6.8 °F -10.7 °F -2.2 °F 67% 29.79 in 1.0 mi NW 15.0 mph 26.5 mph 0.00 in Snow Light Snow
1:38 PM 6.8 °F -10.0 °F -2.2 °F 67% 29.79 in 3.0 mi WNW 13.8 mph 21.9 mph 0.00 in   Haze
1:42 PM 6.8 °F -12.4 °F -4.0 °F 61% 29.80 in 1.5 mi WNW 18.4 mph 26.5 mph 0.00 in Snow Light Snow
1:53 PM 5.0 °F -11.6 °F -0.9 °F 76% 29.90 in 0.5 mi NW 12.7 mph 25.3 mph 0.00 in Snow Snow
2:00 PM 6.8 °F -12.4 °F -2.2 °F 67% 29.81 in 0.5 mi WNW 18.4 mph 27.6 mph 0.00 in Snow Snow
2:04 PM 6.8 °F -11.3 °F -5.8 °F 56% 29.81 in 1.0 mi WNW 16.1 mph 27.6 mph 0.00 in Snow Light Snow
2:10 PM 6.8 °F -10.7 °F -5.8 °F 56% 29.82 in 3.0 mi NW 15.0 mph 24.2 mph 0.00 in   Haze
2:28 PM 6.8 °F -10.7 °F -5.8 °F 56% 29.83 in 1.2 mi West 15.0 mph 31.1 mph 0.00 in   Overcast
2:37 PM 6.8 °F -10.7 °F -5.8 °F 56% 29.84 in 3.0 mi WNW 15.0 mph 24.2 mph 0.00 in   Haze
2:53 PM 8.1 °F -9.0 °F -9.0 °F 46% 29.93 in 6.0 mi NW 15.0 mph 25.3 mph 0.00 in   Haze
3:53 PM 6.1 °F -13.3 °F -7.1 °F 55% 29.98 in 6.0 mi NW 18.4 mph 24.2 mph N/A   Haze
4:53 PM 7.0 °F -11.6 °F -11.9 °F 42% 30.01 in 10.0 mi West 17.3 mph 24.2 mph 0.00 in   Mostly Cloudy
5:53 PM 5.0 °F -9.1 °F -11.0 °F 48% 30.06 in 10.0 mi WNW 9.2 mph 19.6 mph N/A   Clear
6:53 PM 3.9 °F -8.2 °F -13.0 °F 46% 30.09 in 10.0 mi WNW 6.9 mph - N/A   Clear
7:53 PM 1.9 °F -5.6 °F -14.1 °F 47% 30.12 in 10.0 mi WNW 3.5 mph - N/A   Clear
8:53 PM 1.0 °F - -13.0 °F 52% 30.13 in 10.0 mi Calm Calm - N/A   Clear
9:53 PM 1.0 °F - -13.0 °F 52% 30.16 in 10.0 mi Calm Calm - N/A   Clear
10:53 PM 1.0 °F - -13.0 °F 52% 30.17 in 10.0 mi Calm Calm - N/A   Clear
11:53 PM -0.0 °F - -11.0 °F 60% 30.19 in 10.0 mi Calm Calm - N/A   Clear